Temperature
18 18 18 18 17 17 16 16 16 15 15 14 14 14 14 14 14 14 14 14 14 14 13 14 14 15 15 15 16 16 17 17 16 16 16 16 15 15 15 15 15 15 15
19 18 18 17 17 17 16 16 15 15 15 15 14 14 14 14 14 14 14 14 13 13 13 13 13 14 15 14 15 15 16 16 16 16 16 15 15 15 15 15 15 15 15
19 19 18 18 17 17 16 16 15 15 15 15 14 14 14 14 14 14 14 14 13 13 13 12 13 13 14 14 14 15 15 15 15 15 15 15 15 14 15 15 14 14 14
19 19 18 18 18 17 17 16 16 15 15 15 15 15 14 14 14 14 14 14 13 13 12 12 12 13 13 13 14 14 15 15 14 14 15 15 15 14 14 14 14 14 14
19 18 18 18 18 17 17 16 16 15 15 15 15 15 15 15 14 14 14 14 13 13 13 13 13 13 13 13 14 14 14 14 14 14 14 15 15 14 14 14 14 14 13
19 18 18 17 17 17 17 16 16 16 15 15 15 15 15 15 15 14 14 14 14 14 14 14 14 13 13 13 14 14 14 14 14 14 14 14 15 15 14 14 13 12 12
19 18 18 17 17 17 16 16 16 16 16 15 15 15 15 14 14 15 15 14 14 14 14 14 14 14 14 14 14 14 14 14 14 14 15 15 15 15 15 14 13 13 13
18 17 17 16 16 16 16 15 15 15 15 15 15 15 14 14 14 14 15 14 14 14 14 14 14 14 14 14 14 13 14 14 14 14 14 14 14 14 14 14 14 13 12
15 15 15 15 15 15 15 15 15 15 15 14 14 14 14 14 14 14 14 14 14 14 14 14 14 14 14 14 14 13 13 13 13 14 14 14 14 14 14 14 13 13 13
14 13 13 13 13 14 14 14 14 14 14 14 14 14 14 14 14 14 14 14 14 14 14 14 14 14 14 14 14 13 13 13 13 14 14 14 14 14 14 13 13 13 13
12 12 12 12 13 13 13 13 13 13 13 13 13 13 13 13 13 13 14 14 14 14 14 14 14 14 14 14 13 13 13 13 13 14 14 14 14 14 13 13 13 12 12
12 12 12 11 12 12 12 12 12 12 12 12 12 12 12 13 13 13 13 13 13 13 13 13 13 14 14 14 13 13 13 13 13 13 14 13 13 13 12 12 12 12 12
12 12 11 11 11 11 11 11 11 11 11 11 12 12 12 12 12 12 12 12 12 12 13 13 13 14 14 14 13 13 13 13 13 13 12 12 12 12 12 12 12 12 12
13 12 12 11 11 11 11 11 11 11 12 12 12 12 12 12 12 12 12 12 12 12 12 13 13 13 13 13 13 13 12 12 12 12 12 12 12 11 11 12 11 11 11
13 13 12 12 11 11 11 11 11 11 11 12 12 12 12 12 11 11 11 11 12 12 12 12 12 13 13 12 12 12 12 11 11 11 11 11 11 11 11 11 11 11 11
13 13 12 12 11 11 11 11 11 11 11 11 11 11 11 11 11 11 11 11 11 11 11 11 12 12 12 12 12 12 12 11 11 11 11 11 11 11 11 10 10 10 10
13 13 12 12 11 11 11 11 11 11 11 11 11 11 11 11 11 11 11 11 11 11 11 11 11 11 11 11 11 11 11 11 10 10 10 10 10 10 10 10 10 10 10
13 13 12 12 11 11 11 11 11 11 10 10 10 10 10 11 11 11 11 11 11 11 10 10 10 10 10 10 10 10 10 10 10 10 10 10 10 10 10 10 10 10 10
13 13 12 12 11 11 11 11 11 11 10 10 10 10 10 10 10 10 10 10 10 10 10 10 10 10 10 10 10 10 9 9 9 9 9 9 9 9 9 9 9 9 9
13 13 12 12 12 12 12 11 11 11 10 10 10 10 10 10 10 10 10 10 10 10 10 10 10 9 9 9 9 9 9 9 9 9 9 9 9 9 9 9 9 9 9
13 13 12 12 12 12 12 11 11 11 11 10 10 10 10 10 10 10 10 10 10 10 9 9 9 9 9 9 9 9 9 9 9 9 9 9 9 9 8 8 8 8 8
13 13 12 12 12 12 12 11 11 11 11 10 10 10 10 10 10 10 10 10 10 10 9 9 9 9 9 9 9 9 9 9 9 9 9 9 9 8 8 8 8 8 8
13 13 12 12 11 12 12 11 11 11 11 10 10 10 10 10 10 10 10 9 9 9 9 9 9 9 8 8 8 8 8 8 9 9 9 8 8 8 8 8 8 8 8
13 13 12 11 11 11 11 11 11 11 11 11 10 10 10 10 9 9 9 9 9 9 8 8 8 8 8 8 8 8 8 8 8 8 8 8 8 8 8 8 8 8 8
13 12 11 11 11 11 11 11 11 11 11 10 10 10 9 9 9 9 8 8 8 8 8 8 8 8 8 8 8 8 8 8 8 8 8 8 8 8 8 8 7 7 7
13 12 11 11 11 11 11 11 11 10 10 10 10 9 9 9 8 8 8 8 7 7 8 8 8 8 8 8 8 8 8 7 7 7 7 7 7 7 7 7 7 7 7
Wind_Speed
8 6 6 4 2 5 2 3 5 4 5 5 3 4 5 5 5 5 5 6 7 6 5 4 4 3 2 6 6 3 2 2 4 4 3 5 7 7 6 6 13 13 12
8 7 8 7 6 5 6 6 6 6 6 6 6 5 5 6 5 5 5 6 7 7 6 6 5 4 3 4 6 4 2 3 2 4 3 4 7 8 8 6 8 11 13
8 8 8 8 8 7 7 8 7 6 6 6 6 5 6 7 7 6 6 5 5 6 6 6 5 6 4 0 2 2 2 4 5 3 4 4 4 6 9 7 5 4 9
10 8 7 8 8 8 7 7 8 7 7 7 7 6 6 7 8 8 8 7 7 6 6 6 6 6 6 4 2 0 1 4 7 6 4 4 4 5 7 6 5 5 4
10 8 7 7 6 8 7 7 7 7 7 7 6 6 5 5 7 9 9 9 8 7 7 7 8 9 10 7 5 3 1 3 5 7 6 4 5 5 7 6 6 5 6
8 8 7 6 4 5 6 7 7 7 6 6 5 5 6 6 9 11 8 8 8 9 9 9 9 11 14 14 13 9 7 7 7 7 6 6 9 8 7 6 7 6 5
4 4 5 4 3 3 4 5 7 7 7 6 6 6 6 6 11 12 11 6 8 9 10 10 10 12 14 9 12 15 15 16 15 9 7 8 8 9 10 9 8 8 6
8 7 4 1 1 3 5 6 5 5 6 7 7 7 6 6 12 12 11 6 6 6 6 6 8 10 12 12 9 9 10 10 11 9 7 6 6 7 11 11 9 7 5
9 9 8 8 6 6 5 6 6 6 5 5 5 6 6 7 12 12 10 5 6 8 7 7 7 6 13 17 10 7 5 3 2 4 5 4 3 3 5 7 8 6 5
8 8 8 8 8 8 7 6 5 5 5 4 3 4 5 6 11 14 12 5 7 7 6 6 7 3 5 12 8 5 2 1 3 4 4 2 1 1 3 5 7 7 5
6 6 6 6 6 6 6 5 5 4 4 3 3 2 2 3 6 12 12 6 5 5 4 3 3 10 11 9 4 3 4 2 3 3 2 1 1 1 2 2 2 4 5
4 5 4 5 6 5 5 5 5 4 4 3 3 3 3 2 3 7 10 9 6 5 5 2 5 10 10 8 5 7 6 2 2 2 2 2 2 2 1 1 2 3 3
5 4 4 4 5 4 4 4 4 4 4 4 4 3 3 2 1 3 5 6 5 3 1 5 10 9 8 6 7 7 4 1 2 2 1 1 1 2 2 2 2 2 2
4 3 4 5 5 5 5 6 6 7 6 6 5 5 4 3 2 1 2 2 3 2 3 8 10 7 4 7 6 3 2 1 3 2 1 2 1 1 1 2 2 2 1
4 4 5 5 4 4 5 5 5 6 5 5 4 5 5 4 5 6 2 1 1 2 2 4 4 4 4 4 3 3 2 2 2 1 1 1 2 2 2 2 2 2 3
4 5 4 3 3 2 2 4 7 7 7 7 6 5 3 4 6 4 2 4 5 6 2 2 3 4 4 5 4 2 1 1 2 3 2 2 3 3 3 2 3 3 4
4 4 3 2 1 1 1 2 3 3 4 6 8 9 8 7 6 5 6 6 6 4 1 1 2 2 3 3 3 2 2 3 3 3 3 3 3 2 2 3 3 4 4
2 3 2 3 3 3 2 3 3 2 2 2 4 8 8 8 7 6 5 3 4 4 3 4 4 4 4 4 3 2 1 1 0 1 1 2 2 3 2 3 3 4 4
3 4 4 3 2 2 2 4 3 3 2 2 2 2 4 5 4 4 5 2 3 3 4 4 4 4 4 4 3 2 2 2 1 1 2 2 1 2 3 4 4 5 5
4 5 3 3 3 2 3 3 3 2 2 3 3 1 1 2 3 3 3 4 4 4 4 5 5 5 4 4 3 3 3 3 3 2 2 2 2 1 2 4 4 4 4
3 5 1 3 2 2 2 3 3 3 4 5 4 4 5 3 4 5 5 5 5 5 5 5 4 4 4 4 4 4 4 4 4 4 3 3 2 2 2 3 4 4 3
2 5 3 1 2 4 3 3 3 3 5 5 4 3 5 4 4 4 4 4 4 4 5 5 5 4 4 4 4 4 4 4 4 4 4 4 3 3 3 3 4 4 4
1 4 4 3 2 1 2 3 3 4 5 5 5 3 3 4 4 5 5 5 5 6 5 6 6 5 4 4 4 4 5 6 5 5 5 4 4 3 4 4 4 3 3
2 5 4 3 2 2 3 4 4 4 5 5 4 4 4 4 5 6 6 6 6 6 5 5 6 8 8 6 7 8 8 9 9 6 5 4 4 4 3 3 3 2 3
4 5 3 3 3 3 4 4 4 4 5 5 5 4 4 5 5 5 5 5 6 6 6 5 6 7 9 10 10 11 13 13 10 7 4 3 4 4 3 3 2 2 2
5 5 3 3 3 4 4 4 4 5 5 5 4 4 4 5 5 4 4 4 5 5 5 4 8 11 12 12 12 14 13 12 10 9 6 3 4 4 4 3 4 3 4
Wind_Direction
188 168 154 194 164 147 183 152 150 183 167 178 204 232 166 164 180 193 206 211 216 215 208 193 174 141 174 274 276 260 251 207 190 194 162 158 152 164 164 178 156 167 174
180 172 175 178 169 185 188 176 182 198 181 186 204 201 164 162 174 184 194 195 194 189 181 172 157 136 101 284 274 267 272 288 241 183 159 169 172 172 165 190 177 196 177
180 183 179 182 185 195 198 179 187 197 186 192 213 194 166 164 171 175 175 175 172 169 165 161 148 125 115 202 299 307 341 312 298 239 183 180 186 175 165 184 184 216 175
180 191 194 202 187 185 193 181 183 198 198 201 209 196 176 169 172 175 178 182 184 185 184 183 176 160 159 175 201 89 13 311 285 262 208 185 199 185 168 175 194 206 200
174 187 199 224 196 185 185 175 190 203 205 207 204 186 182 184 191 184 182 184 187 195 202 207 206 202 197 199 200 186 191 275 277 259 225 191 196 189 191 180 192 189 207
171 186 193 220 213 184 186 182 197 201 209 207 196 187 189 208 198 185 179 185 192 203 214 219 219 220 221 221 223 221 219 235 247 248 229 205 206 201 189 186 185 182 207
151 171 176 191 216 215 225 216 205 199 202 212 205 203 207 200 177 177 186 210 217 215 214 212 215 216 216 223 230 232 236 238 234 236 239 228 210 198 189 193 194 198 207
34 28 29 49 283 277 272 266 247 231 217 211 215 217 218 196 184 186 187 219 256 253 236 216 206 202 202 207 215 223 229 235 232 227 235 246 237 206 192 198 197 198 213
31 31 32 32 20 3 340 313 299 289 281 254 231 224 222 207 192 193 187 214 247 257 250 235 228 220 200 196 204 222 226 227 180 147 121 94 43 303 213 181 174 173 197
29 33 35 39 35 23 6 358 347 337 319 303 266 236 228 221 200 198 198 219 243 254 254 239 216 182 152 179 194 205 208 206 136 125 117 127 171 215 191 178 177 183 183
33 39 39 29 28 27 1 357 358 354 341 335 319 295 273 258 207 205 203 222 246 272 276 247 156 142 135 142 135 108 123 100 101 117 132 152 178 232 219 194 165 181 183
47 40 44 55 36 19 8 5 6 10 16 16 2 339 317 299 191 212 213 227 263 294 287 259 132 141 138 135 119 117 108 87 120 142 162 173 186 208 223 148 110 73 85
62 53 42 67 74 27 7 360 359 8 16 24 27 15 357 15 115 198 220 245 242 272 313 120 129 136 131 116 112 118 130 167 143 160 164 166 179 169 146 119 103 94 61
92 63 69 63 61 46 29 22 33 33 27 27 24 12 1 6 20 333 222 193 173 178 128 117 126 139 134 124 130 149 206 168 147 179 182 167 148 156 182 168 160 146 196
95 82 78 80 77 68 69 50 45 57 39 24 13 359 3 3 1 349 339 55 52 25 106 147 152 160 158 135 128 121 105 119 153 204 186 170 180 202 219 198 188 187 206
46 60 61 85 90 101 126 117 67 70 61 52 32 6 352 355 333 343 49 88 71 42 19 228 192 175 163 148 145 152 183 236 231 219 216 209 207 211 211 199 204 217 234
22 47 44 51 80 204 222 182 151 112 79 54 31 24 26 28 45 60 74 90 91 78 36 359 47 78 87 106 128 154 204 229 223 220 222 228 219 214 218 221 220 231 245
31 93 34 22 359 341 349 44 86 130 135 103 44 35 42 53 61 59 44 63 84 84 85 83 75 67 65 65 70 59 2 351 355 304 290 266 205 189 221 250 245 244 254
22 50 57 34 341 332 37 72 82 88 113 141 142 41 20 12 1 354 347 26 74 80 79 76 73 68 60 53 47 31 359 342 332 325 304 288 263 214 226 243 257 265 266
103 88 38 346 328 4 65 95 94 74 62 97 109 85 325 322 358 16 27 34 47 52 59 68 65 57 44 33 21 3 344 340 340 332 306 292 284 271 261 260 255 254 254
157 133 143 301 344 25 66 88 83 86 86 81 77 44 14 24 40 41 39 36 38 39 45 57 60 55 41 34 25 13 11 7 5 355 341 318 290 275 272 273 274 268 268
163 144 161 129 44 30 34 83 53 69 104 101 102 80 34 41 56 64 54 37 34 44 45 47 50 51 44 30 18 9 2 349 341 337 327 318 306 282 269 264 268 262 250
240 123 122 115 116 71 16 90 77 54 71 89 90 78 55 50 49 54 50 42 47 52 47 48 48 40 33 26 20 14 2 348 333 319 313 309 305 291 274 265 269 282 286
156 114 123 136 129 100 80 81 82 75 70 76 83 82 72 67 64 60 57 54 54 52 44 41 45 38 31 27 26 28 15 349 331 317 318 320 318 312 299 287 286 291 298
121 116 127 125 137 132 116 106 98 93 84 77 69 66 68 69 72 70 67 71 74 68 57 47 43 37 25 25 20 8 355 353 353 347 342 345 340 336 337 333 323 310 298
119 124 120 108 119 129 134 134 119 104 95 90 81 71 70 72 72 68 60 65 82 76 62 53 60 50 30 18 10 6 5 7 10 11 4 352 357 358 354 335 314 297 287
Height
1485 1486 1487 1488 1489 1489 1489 1490 1489 1490 1491 1491 1492 1492 1492 1491 1491 1491 1491 1492 1494 1495 1497 1501 1504 1507 1510 1514 1519 1522 1524 1527 1528 1530 1531 1532 1534 1535 1536 1536 1537 1538 1538
1482 1483 1484 1485 1485 1486 1486 1487 1487 1488 1489 1490 1491 1491 1490 1489 1489 1488 1489 1489 1490 1491 1493 1495 1497 1501 1505 1509 1514 1517 1519 1522 1525 1526 1527 1529 1530 1531 1533 1533 1534 1534 1534
1479 1481 1481 1482 1482 1483 1484 1485 1486 1486 1487 1488 1489 1489 1489 1488 1488 1487 1487 1487 1487 1488 1490 1491 1493 1495 1500 1504 1508 1512 1514 1517 1520 1523 1524 1525 1526 1527 1528 1529 1530 1530 1530
1476 1478 1479 1480 1480 1480 1482 1483 1483 1484 1485 1486 1487 1488 1487 1487 1486 1487 1487 1487 1487 1488 1489 1490 1491 1493 1497 1501 1505 1508 1510 1512 1515 1518 1520 1521 1523 1524 1524 1524 1525 1526 1527
1474 1476 1477 1478 1479 1478 1478 1479 1480 1481 1482 1483 1485 1486 1486 1486 1486 1486 1486 1487 1487 1488 1488 1488 1489 1491 1494 1498 1501 1504 1506 1509 1512 1514 1516 1516 1517 1519 1519 1519 1521 1522 1523
1473 1473 1473 1475 1476 1476 1476 1476 1477 1478 1479 1481 1482 1483 1483 1484 1484 1485 1485 1486 1487 1487 1488 1488 1488 1489 1491 1494 1497 1500 1502 1505 1508 1510 1511 1511 1511 1513 1515 1516 1517 1518 1519
1471 1471 1471 1472 1473 1473 1473 1474 1474 1475 1476 1477 1478 1479 1480 1481 1482 1483 1484 1484 1485 1486 1487 1487 1487 1488 1490 1491 1493 1495 1498 1501 1504 1505 1506 1506 1507 1507 1509 1511 1512 1513 1514
1469 1470 1470 1470 1470 1470 1470 1470 1471 1472 1472 1473 1474 1476 1477 1478 1479 1481 1482 1483 1484 1485 1485 1486 1486 1486 1487 1489 1490 1492 1494 1497 1498 1499 1500 1501 1502 1503 1504 1505 1507 1509 1512
1468 1468 1467 1467 1466 1466 1466 1466 1467 1468 1469 1470 1471 1472 1474 1475 1476 1478 1479 1480 1480 1481 1482 1483 1483 1484 1484 1486 1488 1489 1491 1493 1494 1495 1495 1496 1497 1498 1500 1501 1502 1504 1505
1468 1467 1466 1465 1464 1464 1463 1463 1463 1463 1464 1465 1466 1468 1470 1471 1473 1474 1476 1476 1477 1477 1479 1480 1480 1481 1482 1483 1485 1487 1489 1489 1490 1491 1492 1492 1492 1492 1494 1496 1497 1499 1500
1468 1467 1466 1464 1463 1462 1461 1460 1459 1459 1460 1461 1462 1464 1466 1467 1469 1470 1471 1472 1472 1474 1475 1476 1476 1477 1478 1480 1482 1484 1485 1486 1487 1487 1487 1487 1487 1488 1489 1491 1493 1494 1496
1469 1468 1466 1464 1462 1460 1459 1459 1459 1458 1459 1459 1460 1461 1463 1464 1464 1465 1466 1467 1468 1469 1470 1472 1472 1473 1475 1477 1479 1480 1482 1483 1484 1484 1484 1484 1484 1485 1485 1487 1488 1489 1491
1471 1469 1468 1466 1463 1461 1461 1461 1461 1461 1461 1461 1461 1461 1461 1462 1462 1462 1463 1464 1464 1465 1467 1468 1469 1471 1472 1474 1476 1478 1479 1480 1481 1481 1481 1482 1483 1483 1483 1484 1484 1485 1487
1472 1471 1469 1467 1465 1463 1463 1462 1462 1462 1462 1462 1461 1461 1461 1461 1460 1460 1460 1461 1462 1463 1464 1466 1468 1469 1470 1472 1474 1475 1477 1478 1479 1479 1479 1480 1481 1481 1482 1481 1482 1482 1483
1474 1472 1470 1468 1467 1465 1465 1465 1464 1464 1464 1463 1462 1462 1460 1459 1458 1458 1458 1459 1460 1461 1462 1464 1466 1468 1469 1470 1472 1474 1475 1476 1477 1477 1477 1477 1478 1479 1479 1479 1478 1478 1479
1474 1473 1472 1470 1469 1468 1467 1467 1466 1466 1465 1464 1463 1461 1459 1458 1456 1456 1456 1457 1458 1459 1461 1463 1465 1467 1468 1469 1471 1472 1473 1474 1474 1474 1474 1475 1475 1476 1476 1476 1476 1476 1475
1475 1474 1473 1472 1471 1470 1469 1468 1467 1467 1465 1464 1462 1461 1459 1457 1456 1455 1456 1456 1457 1459 1460 1462 1464 1466 1468 1469 1470 1471 1471 1472 1472 1472 1472 1473 1473 1473 1473 1473 1473 1472 1472
1475 1474 1473 1472 1471 1470 1470 1469 1468 1467 1465 1464 1463 1462 1460 1459 1458 1458 1457 1458 1459 1460 1461 1463 1465 1466 1468 1469 1469 1470 1470 1471 1471 1471 1471 1471 1470 1471 1471 1470 1470 1469 1468
1475 1474 1473 1472 1471 1471 1471 1470 1468 1467 1466 1465 1464 1464 1463 1462 1462 1461 1461 1461 1462 1463 1464 1465 1466 1467 1467 1468 1468 1469 1469 1469 1469 1469 1469 1469 1468 1468 1467 1467 1466 1465 1464
1474 1473 1473 1473 1473 1473 1472 1471 1470 1469 1469 1467 1466 1466 1465 1465 1465 1465 1465 1465 1465 1465 1466 1466 1467 1467 1467 1467 1467 1467 1467 1467 1467 1466 1466 1466 1465 1465 1464 1463 1462 1461 1460
1474 1473 1473 1473 1474 1474 1473 1473 1472 1472 1471 1470 1469 1468 1468 1467 1467 1467 1468 1468 1468 1468 1468 1468 1468 1467 1467 1466 1466 1466 1466 1465 1464 1464 1463 1462 1461 1461 1460 1459 1458 1457 1456
1474 1473 1473 1474 1474 1474 1474 1474 1474 1474 1473 1472 1472 1471 1471 1470 1470 1470 1470 1470 1470 1470 1469 1469 1468 1468 1467 1466 1466 1465 1464 1463 1462 1461 1460 1458 1457 1456 1456 1454 1453 1452 1451
1473 1473 1473 1474 1474 1475 1475 1475 1475 1475 1475 1475 1474 1474 1474 1473 1473 1473 1472 1472 1471 1471 1470 1469 1469 1468 1467 1466 1465 1464 1463 1461 1460 1459 1457 1455 1454 1453 1452 1450 1449 1448 1447
1473 1473 1473 1474 1474 1475 1476 1476 1476 1476 1476 1476 1476 1476 1476 1476 1475 1474 1474 1473 1472 1471 1470 1469 1468 1467 1466 1465 1464 1462 1461 1460 1458 1457 1455 1453 1451 1449 1448 1446 1445 1444 1442
1471 1471 1472 1473 1474 1475 1475 1476 1476 1477 1477 1477 1478 1478 1478 1477 1477 1476 1475 1473 1472 1471 1470 1468 1467 1466 1465 1463 1462 1460 1458 1457 1456 1455 1453 1452 1449 1447 1445 1444 1442 1441 1439
1470 1470 1471 1473 1474 1475 1476 1476 1477 1477 1478 1478 1478 1478 1478 1478 1477 1476 1475 1474 1472 1471 1469 1467 1466 1465 1463 1461 1459 1457 1455 1454 1453 1452 1451 1450 1448 1446 1444 1442 1441 1439 1437